Lapse_Rate
0.3 1.0 2.0 5.3 6.5 6.5 6.5 6.5 6.5 6.5 6.5 7.2 7.4 7.0 6.6 7.1 6.6 6.5 5.9 4.9 4.2 4.2 3.6 3.7 2.6 2.8 2.9 2.6 2.6 2.6 2.8 2.9 2.8 3.0 3.2 3.3 3.4 3.4 3.5 3.7 3.9 4.4 4.7 4.9 5.0 5.1 5.0 4.7 4.3
1.7 3.0 4.2 5.2 6.5 6.5 6.5 6.5 6.5 6.5 7.0 7.6 7.4 7.3 6.9 6.5 8.0 7.2 7.5 5.6 4.6 3.5 2.9 3.1 2.0 2.5 2.7 2.7 2.6 2.7 2.9 3.1 3.1 3.1 3.2 3.3 3.2 3.3 3.4 3.6 3.8 4.1 4.6 5.0 5.2 5.2 5.0 4.5 4.4
2.9 2.9 6.8 6.5 6.5 6.5 6.5 6.5 6.5 6.9 7.3 7.2 7.1 7.5 7.4 7.1 7.9 6.9 6.0 5.1 4.2 3.0 2.0 1.2 1.2 1.8 2.3 2.6 2.6 2.8 3.0 3.2 3.4 3.4 3.1 3.1 3.1 3.3 3.4 3.4 3.6 4.0 4.5 4.9 5.0 4.9 4.4 4.3 4.3
4.9 5.7 5.9 6.5 6.5 6.5 6.5 6.5 6.8 6.8 7.2 7.1 7.5 6.6 7.0 4.9 6.2 5.3 4.7 4.1 3.2 2.1 1.6 0.3 0.0 0.7 1.6 2.2 2.4 2.6 2.9 2.9 3.1 3.5 3.8 3.8 3.6 3.5 3.6 3.5 3.7 3.9 4.3 4.7 5.1 4.7 4.5 4.2 4.2
3.4 5.2 6.5 6.5 6.5 6.5 6.5 6.9 7.1 6.5 6.9 7.1 7.1 6.7 7.1 4.6 3.3 3.1 3.1 2.9 2.5 1.3 0.9 1.1 0.1 0.6 1.2 1.3 1.6 2.1 2.3 2.5 2.8 3.1 3.4 3.6 3.9 3.9 3.8 3.8 3.9 4.1 4.2 4.3 4.6 4.5 4.4 4.4 4.3
6.6 6.6 6.5 6.5 6.5 6.5 6.6 7.1 7.1 6.8 7.1 7.2 7.1 7.1 6.4 4.0 4.7 2.5 2.6 1.8 1.2 1.0 0.2 0.3 0.6 0.3 0.4 1.1 1.1 1.2 1.3 1.6 2.0 2.4 2.8 3.1 3.7 3.6 3.8 3.7 3.8 3.9 4.2 4.3 4.6 4.9 4.7 4.6 4.7
6.7 6.5 6.5 6.5 6.5 6.5 6.5 6.9 6.8 6.8 6.9 6.9 7.6 6.5 6.7 3.7 3.2 3.1 2.4 1.7 0.7 0.1 0.3 0.2 0.5 0.3 -0.1 0.3 0.4 0.6 1.1 1.6 2.0 1.8 2.2 2.6 3.0 3.2 3.7 3.8 3.9 4.0 4.1 4.2 4.3 4.5 4.5 4.3 4.2
5.2 6.6 6.5 6.5 6.5 6.5 6.7 7.0 7.0 7.1 6.8 7.0 6.4 6.7 6.9 4.5 2.8 2.9 2.7 2.3 1.5 0.3 -0.1 -0.0 -0.0 0.3 0.7 0.9 0.2 0.2 0.3 0.5 0.9 1.1 1.6 2.5 2.7 2.9 3.3 3.6 3.8 3.9 4.0 4.0 4.1 4.2 4.3 4.5 4.4
4.1 6.5 6.5 6.5 6.5 6.5 6.9 6.6 7.0 5.8 7.2 4.9 3.7 6.2 4.9 3.2 3.0 2.9 3.7 3.0 2.2 1.0 -0.0 -0.7 -0.4 -0.4 0.1 0.2 -0.3 0.3 0.2 -0.0 0.5 1.1 0.7 2.4 2.9 3.9 4.9 3.1 2.9 2.9 3.4 3.6 3.7 3.9 4.1 4.0 3.9
6.7 6.5 6.5 6.5 6.6 6.5 6.8 6.8 7.1 7.0 6.9 6.1 4.8 3.0 3.8 3.6 3.6 4.3 4.8 3.5 2.0 1.1 0.1 -0.3 -1.0 -1.0 -0.6 -0.2 -0.6 -0.3 0.6 0.5 0.3 0.4 0.4 0.7 1.1 1.6 2.7 2.2 2.1 2.2 2.8 3.1 3.6 3.8 4.0 4.0 4.5
6.7 6.5 6.5 6.7 6.8 7.0 6.8 6.8 6.5 6.9 6.5 6.7 6.3 3.5 4.7 4.8 5.0 4.8 3.6 2.8 1.4 -0.1 -0.4 -0.7 -1.2 -1.8 -1.3 -1.1 -0.6 0.0 0.2 0.8 0.1 -0.6 -0.3 0.1 1.4 1.5 1.7 2.3 2.4 3.1 3.3 4.3 4.7 4.8 3.9 4.8 5.4
6.5 6.8 6.8 6.9 6.4 6.9 6.6 7.0 6.8 7.1 6.7 5.0 4.4 2.7 4.5 5.4 4.9 4.1 2.7 1.0 0.4 -0.4 -1.2 -1.7 -1.7 -1.5 -1.7 -0.8 -0.5 -0.3 0.3 0.2 0.5 -0.2 -0.1 1.0 1.4 1.1 0.8 0.6 0.5 0.5 0.5 2.2 2.5 3.0 3.6 3.9 4.0
6.5 6.6 6.9 6.6 5.9 6.0 6.4 6.8 6.6 6.9 2.8 3.6 3.1 4.1 5.1 5.2 4.1 3.1 2.0 0.5 -0.3 -0.5 -1.6 -1.7 -1.0 -0.9 -0.7 -0.2 -0.1 -0.2 -0.2 -0.3 -0.4 -0.2 -0.3 1.8 2.2 1.4 0.7 0.2 -0.1 -0.3 -0.0 0.5 0.4 1.0 2.0 2.9 2.8
6.7 6.8 6.9 6.3 6.8 6.4 6.6 6.7 6.7 6.4 2.9 4.2 3.4 3.7 4.6 4.4 3.5 1.9 1.0 0.2 -0.1 -0.6 -1.0 -1.2 -0.8 -0.6 -0.1 0.1 -0.1 0.1 -0.2 -0.4 -0.4 -0.7 -0.9 -0.1 1.0 1.4 1.6 1.2 0.9 1.5 0.9 0.5 1.0 1.0 1.1 1.0 1.0
6.9 6.5 6.5 6.6 6.8 6.6 6.9 6.5 6.5 5.1 5.0 6.1 6.0 4.9 4.6 4.1 2.8 2.2 1.2 0.5 0.1 -0.1 -0.9 -0.9 -1.0 -0.6 0.1 -0.1 -0.1 -0.3 -0.3 -0.2 -0.1 -0.4 -1.0 -0.5 0.0 0.4 1.0 1.4 1.6 1.2 1.2 1.2 1.6 1.4 1.6 2.2 2.4
6.5 6.5 6.5 6.5 6.6 6.6 6.7 6.5 6.5 4.7 6.3 7.0 7.3 5.8 4.5 3.8 2.9 1.9 0.9 0.8 0.1 0.1 -0.1 -0.0 0.0 0.0 0.1 -0.5 -0.2 0.1 -0.2 0.2 -0.0 -0.3 -0.4 -0.7 -0.7 -0.3 0.4 0.9 0.8 0.4 0.8 1.1 1.8 1.8 2.4 2.5 2.2
6.5 6.5 6.5 6.5 6.7 6.5 6.5 6.5 6.6 5.7 7.1 7.1 7.2 7.2 5.4 4.1 2.8 1.8 0.8 0.5 0.3 1.0 0.2 -0.2 -0.2 0.3 0.4 -0.4 -0.4 -0.4 -0.5 0.1 -0.1 -0.1 -0.2 -1.0 -0.9 -0.8 0.2 0.3 -0.1 0.2 0.8 0.9 1.4 1.9 1.5 2.4 2.6
6.5 6.5 6.5 6.5 6.5 6.5 6.5 6.5 6.5 7.1 7.2 7.0 7.2 7.3 6.8 4.6 3.0 1.8 1.3 0.9 1.2 0.8 0.2 -0.3 0.4 0.1 0.4 0.8 0.4 0.3 0.1 -0.2 -0.2 -0.1 -0.7 -0.9 -1.1 -1.2 -0.3 -0.4 -0.5 0.0 0.8 0.9 1.0 0.9 1.6 1.8 1.7
6.5 6.5 6.5 6.5 6.5 6.5 6.5 6.5 6.5 6.9 7.1 7.0 7.3 7.3 7.2 5.8 4.8 2.8 2.0 1.2 1.0 0.8 0.8 0.3 0.5 0.1 0.8 1.8 1.9 1.7 1.1 0.4 0.2 -0.7 -1.5 -1.6 -1.7 -1.6 -1.2 -0.7 -0.4 -0.2 0.3 0.1 0.4 0.9 1.2 2.6 2.4
6.5 6.5 6.5 6.5 6.5 6.5 6.5 6.5 6.5 6.5 6.7 7.0 7.1 7.2 7.2 7.5 3.8 3.2 2.4 1.8 2.0 1.4 1.3 1.1 1.4 1.2 1.8 2.7 1.8 1.6 0.8 0.0 -0.4 -1.1 -1.6 -1.8 -1.8 -2.0 -1.4 -1.0 -0.5 -0.5 0.7 0.7 1.1 1.5 2.3 2.7 2.9
6.5 6.5 6.5 6.5 6.5 6.5 6.5 6.5 6.5 6.5 6.9 7.1 7.3 6.9 5.5 5.8 4.8 3.9 3.2 2.4 2.6 2.1 1.4 1.5 1.2 1.3 1.6 1.5 1.4 0.8 -0.0 -0.3 -0.2 -0.7 -0.7 -1.7 -1.8 -1.8 -1.3 -0.7 0.0 0.5 1.2 1.9 2.2 2.3 2.4 3.6 3.9
6.5 6.5 6.5 6.5 6.5 6.5 6.5 6.5 6.5 6.5 6.5 6.5 6.9 7.3 7.0 6.3 6.0 4.4 3.6 2.7 2.8 2.3 1.6 1.3 1.0 1.0 1.2 1.1 2.1 2.4 2.7 1.2 -0.6 -0.7 -0.8 -1.1 -1.2 -0.8 -0.6 -0.3 0.3 1.0 1.7 2.3 2.6 2.6 2.8 3.3 3.2
6.5 6.5 6.5 6.5 6.5 6.5 6.5 6.5 6.5 6.5 6.5 6.5 6.5 7.1 7.3 7.1 5.1 4.0 3.0 2.7 2.9 1.7 1.3 1.0 1.2 1.2 0.9 1.2 1.3 1.4 0.8 0.2 -0.4 -0.2 -0.1 -0.1 -0.4 -0.5 -0.1 0.3 1.1 1.6 2.1 2.0 2.1 2.0 1.9 2.5 3.8
6.5 6.5 6.5 6.5 6.5 6.5 6.5 6.5 6.5 6.5 6.5 6.5 6.6 7.0 7.2 7.5 7.3 5.9 4.8 3.3 2.5 1.6 1.2 1.0 1.6 1.3 0.8 0.5 0.0 0.4 0.6 0.3 0.5 0.3 0.6 0.8 1.1 1.0 0.4 0.9 1.7 2.2 2.4 2.2 1.9 2.0 2.3 3.3 4.6
6.5 6.5 6.5 6.5 6.5 6.5 6.5 6.5 6.5 6.5 6.5 6.5 6.5 6.8 6.9 7.3 6.8 5.8 5.0 3.5 2.2 0.9 0.9 1.2 1.7 0.7 0.3 0.2 0.0 0.3 0.7 1.0 1.0 1.2 1.6 1.5 1.6 1.5 1.0 1.2 1.8 1.9 1.8 1.9 1.5 2.5 2.5 2.7 3.2
6.5 6.5 6.5 6.5 6.5 6.5 6.5 6.5 6.5 6.5 6.7 6.8 5.8 6.0 6.7 7.1 6.2 6.0 5.9 4.2 2.7 1.8 1.4 1.7 1.6 0.7 0.1 0.2 -0.0 0.1 0.7 1.3 1.4 1.6 2.4 2.0 1.6 1.2 0.6 1.0 1.4 1.5 1.6 1.9 1.5 2.1 2.7 2.8 2.8
6.5 6.5 6.5 6.5 6.5 6.5 6.5 6.5 6.5 6.5 6.5 6.6 6.8 6.9 6.8 7.0 6.7 6.8 7.0 4.6 3.0 2.3 1.8 1.8 1.9 1.3 0.4 0.4 0.3 0.5 1.0 1.2 1.5 1.7 2.0 1.9 1.6 1.4 1.0 1.4 1.7 1.7 1.8 1.7 1.9 2.0 2.1 2.7 3.1
6.5 6.5 6.5 6.5 6.5 6.5 6.5 6.5 6.5 6.5 6.5 6.5 6.5 6.7 6.3 7.1 6.5 6.7 6.6 4.9 3.4 2.8 2.3 2.4 2.3 1.4 0.8 1.4 1.5 1.3 1.1 1.5 2.2 2.0 1.7 1.4 1.1 1.0 1.4 1.5 1.5 1.3 1.2 1.2 1.5 2.0 2.1 3.2 3.3
6.5 6.5 6.5 6.5 6.5 6.5 6.5 6.5 6.5 6.5 6.5 6.5 6.5 6.8 6.1 5.5 6.9 7.4 7.2 5.5 3.8 3.1 2.8 2.7 2.7 2.0 2.0 2.1 1.7 1.1 0.9 1.6 1.8 1.9 1.7 1.7 1.3 1.2 1.5 1.5 1.5 1.6 1.6 1.4 2.3 2.3 2.5 2.8 3.0
6.5 6.5 6.5 6.5 6.5 6.5 6.5 6.5 6.5 6.5 6.5 6.7 6.7 6.8 5.0 5.4 5.1 6.5 6.4 4.7 3.8 3.2 3.3 3.0 3.0 2.9 2.6 2.0 1.3 0.9 1.3 1.4 1.5 1.8 1.6 1.3 1.3 0.7 1.4 1.5 1.5 1.7 1.4 1.9 2.1 2.4 2.8 3.3 3.5
Wind_Speed
6 3 2 2 1 1 2 4 1 6 6 2 5 3 7 6 2 2 4 7 9 9 9 9 10 10 9 10 12 13 12 12 13 13 14 15 14 14 14 14 13 11 9 9 8 7 8 8 9
2 1 2 2 1 2 3 3 7 6 7 14 10 8 4 4 4 6 3 8 11 11 11 12 12 11 11 11 12 11 10 9 11 11 11 12 12 12 13 13 12 11 10 9 7 6 7 7 7
2 3 1 3 2 3 3 4 7 10 9 4 5 5 4 4 7 4 8 9 13 12 14 15 16 14 12 11 12 11 10 9 7 8 9 10 11 11 11 10 10 9 8 7 6 5 7 7 6
1 2 3 1 3 3 2 3 8 14 3 3 9 9 6 4 3 6 10 10 11 12 14 17 18 15 12 12 12 11 10 9 7 5 4 4 6 7 7 7 7 7 7 6 4 4 5 7 7
3 2 1 1 3 3 3 2 17 9 5 7 2 6 4 3 6 9 10 10 10 9 10 15 17 18 16 15 14 14 12 10 8 5 3 3 2 4 5 5 5 5 5 5 4 4 4 5 6
2 1 2 5 4 3 4 5 13 5 7 6 6 8 3 3 4 8 10 11 10 9 10 10 15 16 17 16 16 16 15 13 11 8 4 2 2 3 4 5 5 5 5 5 5 5 6 6 6
3 1 2 1 3 3 4 8 13 8 9 6 12 6 4 5 6 9 10 10 10 11 10 9 10 12 15 17 16 15 14 13 11 11 8 5 2 1 2 2 3 4 5 6 7 7 8 9 10
3 2 2 3 3 3 4 7 7 10 7 7 1 7 6 9 10 9 10 9 9 9 9 9 9 9 10 10 15 17 16 14 13 13 10 7 5 5 4 2 0 2 4 5 6 7 8 9 11
3 1 2 3 4 3 2 3 3 3 12 3 2 2 6 21 13 10 10 8 7 8 8 9 8 9 9 10 11 11 13 14 12 12 14 10 7 5 3 8 10 8 4 2 3 4 5 7 9
1 3 7 3 3 2 3 4 10 8 8 3 4 10 18 19 13 12 9 8 6 6 7 6 8 8 9 9 9 10 10 12 13 14 12 10 9 11 12 14 14 15 12 11 9 6 4 2 3
2 4 4 3 6 3 3 3 3 7 11 9 16 19 19 18 14 12 9 7 7 5 5 7 7 8 9 9 8 8 9 9 12 14 12 11 10 11 11 10 10 9 11 9 8 5 6 4 3
3 5 4 4 1 2 2 2 4 10 4 4 13 21 21 20 16 13 12 10 9 7 7 6 7 9 10 9 10 10 10 10 10 12 13 11 9 10 10 10 10 11 11 10 10 8 8 6 6
4 5 4 7 9 6 2 6 5 9 1 10 19 18 18 16 15 10 10 10 9 8 7 7 7 8 9 10 10 11 11 11 11 12 15 11 9 8 9 9 10 11 10 10 9 9 9 7 9
1 6 10 7 6 4 5 4 6 5 8 14 19 19 17 16 15 12 11 10 9 8 8 7 7 9 11 10 12 10 11 11 13 14 13 14 11 9 8 8 9 10 11 10 8 9 8 6 9
2 6 9 7 4 4 5 5 9 6 13 15 18 17 16 16 14 13 12 11 11 8 9 8 9 10 10 11 11 11 12 12 12 13 15 15 13 12 10 8 8 9 9 9 8 9 9 6 8
3 1 5 3 7 4 7 20 13 13 17 18 19 17 16 16 15 11 10 10 10 11 10 9 8 9 10 11 11 11 12 12 12 12 13 15 14 12 11 9 8 9 8 8 7 6 5 5 6
1 7 6 6 5 3 11 15 10 15 17 18 18 18 17 15 14 12 12 12 11 10 11 10 10 11 11 12 13 13 13 12 11 12 12 13 14 12 11 10 10 9 8 8 6 5 6 6 7
5 5 4 7 2 6 15 16 7 12 16 20 20 19 18 18 19 14 13 11 11 10 10 10 8 11 10 10 11 10 10 10 11 11 11 12 12 12 9 10 9 8 6 5 6 6 6 5 8
2 4 10 6 7 5 11 18 16 12 13 14 16 18 19 20 13 12 12 11 11 10 10 10 10 11 9 7 6 5 5 5 6 10 12 12 12 12 11 9 10 9 7 7 8 6 8 6 10
11 14 17 13 14 10 19 26 20 13 13 22 22 20 22 17 15 16 14 13 13 12 10 10 10 11 8 5 4 3 5 6 7 9 12 12 13 13 12 11 9 10 7 9 10 9 6 5 8
12 16 11 13 8 10 13 30 24 14 20 18 22 23 23 24 22 19 18 16 13 13 12 11 10 10 8 7 7 7 7 5 4 5 6 11 12 12 12 12 11 11 9 6 7 7 8 6 6
12 11 16 14 6 8 3 16 16 7 17 17 21 21 22 23 21 20 20 18 15 12 11 11 9 10 8 10 7 8 3 4 3 5 5 8 11 12 12 12 10 9 7 6 6 6 7 7 7
8 7 10 9 8 6 11 8 19 6 11 16 19 22 22 22 23 24 23 21 17 14 11 11 10 9 8 8 7 5 7 7 5 5 7 8 10 12 10 10 9 8 7 8 9 9 9 7 5
2 2 1 3 3 8 10 11 28 13 16 11 17 18 18 18 20 19 19 19 16 14 13 12 12 10 9 9 9 10 11 9 7 6 6 5 5 6 8 8 9 10 9 9 9 10 11 8 6
5 2 3 4 5 9 9 12 22 10 10 8 12 15 18 19 20 21 23 21 19 17 15 13 13 12 11 11 11 10 10 9 9 7 5 6 5 4 6 7 8 9 11 12 12 9 9 7 6
9 9 5 5 4 4 3 11 10 3 5 8 6 9 13 18 19 21 22 20 19 19 16 15 14 14 13 12 12 11 10 7 6 7 5 5 5 5 7 8 9 10 11 11 10 8 6 7 7
3 8 14 6 8 3 5 12 20 8 5 7 7 3 12 15 17 19 20 20 20 19 18 16 16 14 14 13 11 11 10 10 8 8 7 4 5 6 8 9 10 11 11 11 10 7 8 6 7
6 0 1 3 4 6 7 8 13 10 12 14 11 9 8 10 15 17 18 19 18 18 16 15 15 15 14 14 12 11 11 10 9 8 8 7 7 8 8 8 10 10 10 11 10 7 8 7 6
6 6 6 7 4 6 12 8 3 8 7 11 14 11 9 13 14 16 16 16 18 18 17 15 14 15 14 14 13 13 11 11 9 8 7 7 8 8 7 8 9 8 8 10 8 8 7 8 8
12 11 5 3 3 4 6 11 14 12 11 11 15 11 6 12 16 17 19 20 20 20 18 17 15 15 15 14 14 13 12 11 10 9 8 8 8 9 9 9 9 8 9 9 9 9 8 9 9
Wind_Direction
336 12 104 41 240 347 137 177 272 147 147 158 119 159 113 46 41 97 77 72 95 87 78 73 70 81 81 88 90 94 101 106 111 119 125 129 131 137 145 149 152 152 147 148 147 136 121 114 108
350 2 61 97 151 198 184 168 186 159 136 126 104 116 87 94 66 98 98 85 88 86 78 74 74 81 89 90 95 100 104 110 116 119 124 131 136 143 150 156 154 153 151 151 151 143 129 122 120
124 39 353 74 102 228 202 194 162 137 143 170 113 48 88 101 77 94 102 102 86 70 69 63 69 75 83 92 93 97 97 92 99 118 131 140 144 152 158 159 159 156 156 157 152 143 136 143 143
34 63 88 269 213 233 238 164 155 148 97 71 119 93 90 22 11 84 103 99 87 73 69 60 64 63 68 80 86 93 99 104 105 105 112 133 153 163 167 170 169 168 169 165 167 157 146 152 165
38 55 113 199 242 271 263 218 163 146 127 131 81 135 77 52 76 90 96 91 93 79 72 64 67 68 74 68 71 74 78 80 89 96 117 145 177 181 186 196 204 204 200 194 195 192 196 180 185
65 58 173 224 207 225 253 195 169 138 145 139 122 119 108 53 114 88 91 86 85 85 75 73 70 74 73 76 72 71 70 72 72 73 73 88 196 209 222 217 222 226 234 237 237 217 225 226 214
130 116 250 236 258 262 208 163 187 166 147 175 137 118 123 131 118 106 93 89 82 78 74 70 71 75 74 71 73 74 73 72 71 67 59 53 54 2 255 248 250 248 253 254 250 251 249 243 233
111 117 175 230 244 264 168 160 191 162 157 118 118 169 173 170 143 118 104 92 81 73 69 61 63 69 76 77 64 65 62 62 64 60 47 47 61 50 42 54 38 246 245 253 258 260 262 265 263
142 126 218 242 186 281 202 165 156 88 139 81 43 175 136 141 140 127 123 107 89 67 56 58 62 65 69 66 60 65 60 57 55 56 45 53 48 42 56 58 60 51 32 325 295 287 289 291 283
131 181 204 210 210 268 280 206 157 160 154 134 113 102 135 142 153 151 156 135 108 76 61 55 59 68 77 74 67 63 58 54 49 50 46 47 47 49 73 62 59 57 58 59 62 71 70 3 289
170 219 201 246 234 263 287 181 200 166 193 190 186 157 157 153 161 158 149 133 118 104 79 58 69 70 80 77 76 66 61 56 51 47 47 47 48 43 47 48 38 40 32 37 35 37 57 29 355
292 265 242 282 15 292 234 189 197 181 190 263 169 164 159 165 167 165 155 147 143 129 109 97 85 82 75 80 76 78 71 64 57 46 41 49 50 49 47 45 37 34 31 26 26 8 21 17 4
214 285 292 286 295 267 232 229 253 218 58 138 146 164 171 169 166 163 150 143 144 133 121 104 94 88 82 79 76 75 74 68 62 53 44 48 53 56 51 44 44 37 25 26 19 11 6 356 350
299 288 286 294 283 268 234 206 165 211 155 151 160 173 177 177 168 155 161 153 152 133 119 109 107 98 95 87 81 75 73 70 67 59 50 51 54 52 51 48 42 36 26 19 14 12 356 354 343
281 299 297 247 255 254 204 218 222 163 171 169 179 177 176 179 174 179 169 160 148 136 135 139 117 108 99 94 87 82 77 73 67 64 55 53 54 55 57 52 46 34 24 22 15 11 3 353 344
290 192 279 309 216 230 202 254 223 169 170 185 188 184 183 186 185 180 169 156 156 148 152 138 124 116 107 102 93 87 80 78 72 65 58 52 52 52 58 57 47 35 33 26 23 14 359 355 348
333 261 234 291 226 249 213 259 237 176 189 193 193 191 191 186 189 183 173 166 159 155 147 131 136 130 119 107 100 92 83 73 65 60 54 49 49 48 55 51 43 33 33 29 19 17 10 357 347
217 227 225 248 294 236 246 248 242 201 203 201 198 199 199 199 197 180 172 161 156 153 143 134 144 138 128 118 110 99 88 78 71 65 59 56 54 52 59 58 46 41 39 35 23 14 10 6 344
201 251 263 250 260 279 261 266 255 236 209 217 210 210 210 209 187 176 169 163 158 154 150 148 153 153 146 143 133 116 106 95 83 71 63 60 59 56 54 55 48 43 41 34 28 21 16 17 358
231 255 263 274 267 273 280 272 258 241 217 212 212 211 216 203 192 185 176 171 174 162 155 157 164 168 164 159 124 120 122 91 81 74 62 56 55 51 52 49 46 40 40 35 31 26 19 27 23
220 224 244 254 303 279 282 278 262 231 227 214 218 215 215 206 197 185 181 181 174 168 166 165 164 170 172 148 125 114 110 107 85 69 63 53 55 53 52 51 47 45 42 40 38 32 30 24 30
245 208 234 247 261 270 214 290 262 259 226 218 217 212 212 205 198 188 184 181 180 175 161 155 153 155 159 158 156 158 142 131 109 96 85 74 61 58 54 53 52 53 52 46 46 44 44 34 32
263 188 210 223 226 283 237 264 272 237 235 225 223 217 214 203 192 187 184 178 177 164 161 149 142 141 150 154 152 140 118 114 123 115 101 79 66 58 55 56 59 56 55 55 50 47 43 45 47
154 207 167 76 184 254 226 209 279 273 239 238 229 221 218 203 196 188 179 169 169 162 158 151 147 139 136 135 133 130 133 137 134 122 103 87 78 73 62 67 69 63 60 55 53 45 43 38 40
192 186 221 214 194 250 170 196 246 304 299 274 258 223 208 193 188 184 179 174 167 164 159 153 150 143 140 133 130 133 132 132 128 123 114 113 100 82 65 69 64 56 55 57 54 44 44 39 42
207 204 234 245 212 297 215 244 251 314 317 334 248 240 193 194 189 188 182 173 167 164 161 156 154 148 147 142 135 133 134 134 126 124 125 104 96 88 76 72 70 64 59 63 61 50 43 36 39
209 213 238 256 259 245 258 277 284 281 290 358 343 257 203 195 189 186 181 173 166 165 164 160 158 153 149 144 138 136 136 132 128 127 121 104 96 90 77 70 71 64 61 58 61 54 43 33 36
242 209 93 113 254 235 242 267 256 305 296 298 293 264 223 200 185 183 180 174 168 165 162 161 161 156 150 147 143 140 136 132 134 128 117 108 102 99 94 88 80 73 68 65 65 61 46 43 37
292 255 235 249 230 255 269 261 235 298 313 305 298 280 224 196 191 181 176 172 165 161 162 161 161 154 155 152 145 142 139 140 132 126 122 112 108 105 98 97 88 76 72 67 72 71 60 52 46
258 300 327 287 263 263 278 262 279 314 334 338 319 311 242 202 185 181 177 170 170 165 163 164 163 162 162 152 148 145 145 141 136 136 130 128 115 108 108 105 90 81 73 71 70 66 55 44 41